Location: Faicchio
(41.2833°N, 14.4833°E)
Time: 06:07:00
(UTC+00:00)

CZ-2C R/B - Pass Details

Date: 15 June 2025
Orbit: 783 x 866 km, 98.4° (Epoch: 16 July)

Event Time Altitude Azimuth Distance (km) Brightness Sun altitude
Exits shadow 00:14:32 58° 181° (S) 925 2.5 -23.3°
Maximum altitude 00:15:35 81° 257° (WSW) 812 2.5 -23.2°
Drops below altitude 10° 00:20:53 10° 345° (NNW) 2,402 5.8 -22.9°
Sets 00:23:16 0° 346° (NNW) 3,350 6.7 -22.7°
